This demonstration page uses our WeatherBlox Daily Observations layout. Learn more.

Left ArrowRight Arrow

39.01783, -85.05884

Hourly Observations for March 6, 2018

Temp ( °F °C ) Dew Point ( °F °C ) Humidity (%) Winds ( mph kmh ) Pressure ( in mb ) Visibility ( mi km ) Precip ( " mm )
12:52 am 00:52 Cloudy 42 5.6 28 -2.2 58 58 ESE 8 13 29.85 1011 10 16 0.01 0.25
1:52 am 01:52 Cloudy 42 5.6 26 -3.3 53 53 ESE 5 7 29.84 1010 10 16 N/A
2:52 am 02:52 Cloudy 42 5.6 32 undefined 68 68 SSW 5 7 29.81 1010 10 16 N/A
3:52 am 03:52 Cloudy 42 5.6 31 -0.6 65 65 WSW 3 6 29.81 1010 10 16 N/A
4:31 am 04:31 Cloudy with Drizzle 41 5 35 1.7 79 79 SW 5 7 29.85 1011 9 14 N/A
4:52 am 04:52 Cloudy 41 5 37 2.8 86 86 N N/A 29.81 1010 10 16 N/A
5:41 am 05:41 Partly Cloudy 40 4.4 36 2.2 86 86 N N/A 29.83 1010 10 16 N/A
5:52 am 05:52 Mostly Clear 40 4.4 36 2.2 86 86 SSW 3 6 29.81 1009 10 16 N/A
6:52 am 06:52 Mostly Clear 36 2.2 36 2.2 100 100 W 6 9 29.82 1010 10 16 N/A
7:14 am 07:14 Mostly Sunny 34 1.1 34 1.1 100 100 SSW 3 6 29.83 1010 7 11 N/A
7:52 am 07:52 Mostly Sunny 36 2.2 36 2.2 100 100 SSW 5 7 29.82 1010 7 11 N/A
8:10 am 08:10 Partly Cloudy 39 3.9 38 3.3 96 96 SSW 7 11 29.83 1010 7 11 N/A
8:52 am 08:52 Mostly Sunny 41 5 39 3.9 93 93 SW 9 15 29.81 1009 8 13 N/A
9:52 am 09:52 Sunny 45 7.2 39 3.9 80 80 SSW 8 13 29.79 1009 10 16 N/A
10:52 am 10:52 Sunny 50 10 34 1.1 54 54 S 12 19 29.77 1008 10 16 N/A
11:52 am 11:52 Sunny 53 11.7 30 -1.1 41 41 SW 12 19 29.74 1007 10 16 N/A
12:52 pm 12:52 Mostly Sunny 56 13.3 30 -1.1 37 37 WSW 15 24 29.71 1006 10 16 N/A
1:52 pm 13:52 Mostly Sunny 56 13.3 22 -5.6 27 27 SW 13 20 29.67 1005 10 16 N/A
2:52 pm 14:52 Mostly Sunny 57 13.9 23 -5 27 27 SW 20 31 29.65 1004 10 16 N/A
3:52 pm 15:52 Mostly Cloudy 55 12.8 18 -7.8 23 23 SW 14 22 29.63 1003 10 16 N/A
4:52 pm 16:52 Mostly Cloudy 56 13.3 17 -8.3 22 22 SW 13 20 29.62 1003 10 16 N/A
5:52 pm 17:52 Cloudy 53 11.7 19 -7.2 26 26 W 18 30 29.63 1004 10 16 N/A
6:40 pm 18:40 Cloudy 47 8.3 33 0.6 59 59 NW 30 48 29.68 1005 10 16 N/A
6:52 pm 18:52 Cloudy 46 7.8 34 1.1 63 63 NW 28 44 29.70 1006 10 16 N/A
7:52 pm 19:52 Cloudy 42 5.6 33 0.6 71 71 WNW 23 37 29.74 1007 10 16 N/A
8:52 pm 20:52 Cloudy 41 5 33 0.6 73 73 WNW 8 13 29.73 1007 10 16 N/A
9:52 pm 21:52 Cloudy 41 5 32 undefined 70 70 W 3 6 29.72 1007 10 16 N/A
10:52 pm 22:52 Cloudy 40 4.4 33 0.6 77 77 WSW 5 7 29.72 1007 10 16 N/A
11:52 pm 23:52 Cloudy 40 4.4 33 0.6 77 77 WNW 9 15 29.72 1006 10 16 N/A

Powered by AerisWeather